Regional Weather Roundup
Issued by NWS

Home | Current Version | Previous Version | Graphics & Text | Print | Product List | Glossary On
Versions: 1 2 3 4 5 6 7 8 9 10 11 12 13 14 15 16 17 18 19 20 21 22 23 24 25 26 27 28 29 30 31 32 33 34 35 36 37 38 39 40 41 42 43 44 45 46 47 48 49 50
000
ASUS45 KBOU 231007
RWRCO

WEATHER ROUNDUP FOR COLORADO
NATIONAL WEATHER SERVICE DENVER/BOULDER CO
400 AM MDT FRI JUN 23 2017

NOTE: "FAIR" INDICATES FEW OR NO CLOUDS BELOW 12000 FEET WITH NO
SIGNIFICANT WEATHER AND/OR OBSTRUCTIONS TO VISIBILITY.

COZ001>005-013-030-031-231100-
...NORTHWEST COLORADO...

CITY           SKY/WX    TMP DP  RH WIND       PRES   REMARKS
CRAIG          FAIR      49  37  63 S3        30.18R
HAYDEN         FAIR      48  28  46 NE5       30.20R
MEEKER         FAIR      47  42  83 MISG      30.20R
RABBIT EARS PA FAIR      43  27  52 W9        30.41R
STEAMBOAT SPGS FAIR      47  35  63 CALM      30.20R
WALDEN         FAIR      45  37  76 CALM      30.30R
$$

COZ006>008-011-231100-
...WEST CENTRAL VALLEYS...

CITY           SKY/WX    TMP DP  RH WIND       PRES   REMARKS
GRAND JUNCTION FAIR      74  30  19 VRB5      30.03R
MONTROSE       FAIR      59  37  44 S7        30.10R
EAGLE          FAIR      51  38  60 NE3       30.22R
RIFLE          FAIR      54  39  57 E6        30.11R
DELTA          FAIR      68  36  30 CALM      30.04R
NUCLA          FAIR      61  32  33 SE9       30.12R
$$

COZ017>023-064>068-231100-
...SOUTHWEST COLORADO...

CITY           SKY/WX    TMP DP  RH WIND       PRES   REMARKS
DURANGO        FAIR      50  30  46 E3        30.08F
CORTEZ         FAIR      54  36  50 E8        30.07R
PAGOSA SPRINGS MOCLDY    54  26  34 CALM      30.17S
TELLURIDE      FAIR      54  32  43 CALM      30.33S
WOLF CREEK PAS FAIR      52  27  37 W6        30.55F
$$

COZ009-010-012-014-032>034-037-058>063-231100-
...CENTRAL COLORADO...

CITY           SKY/WX    TMP DP  RH WIND       PRES   REMARKS
ASPEN          FAIR      45  36  70 CALM      30.23R
BUENA VISTA    FAIR      52  35  51 CALM      30.24S
COPPER MTN     FAIR      46  27  46 NW10      30.51S
BERTHOUD PASS  FAIR      37  27  65 NW16      30.53R
COTTONWOOD PAS FAIR      59  32  36 SW9       30.35F
GUNNISON       FAIR      46  39  76 CALM      30.23R
KREMMLING      NOT AVBL
LEADVILLE      FAIR      36  29  75 NE5       30.35S
MONARCH PASS   FAIR      48  32  53 W8        30.60F
SALIDA         FAIR      58  38  47 W6        30.29S
SUNLIGHT       FAIR      46  23  39 NW9       30.46R
WILKERSON PASS FAIR      46  37  71 S6        30.48S
$$

COZ069>075-231100-
...SAN LUIS VALLEY/SANGRE DE CRISTO MOUNTAINS...

CITY           SKY/WX    TMP DP  RH WIND       PRES   REMARKS
ALAMOSA        FAIR      48  44  86 CALM      30.16R
DEL NORTE      FAIR      56  29  36 CALM      30.20R
LA VETA PASS   FAIR      55  34  44 CALM      30.47S
SAGUACHE       FAIR      52  28  40 NW5       30.20S
$$

COZ035-036-038>040-231100-
...NORTHERN COLORADO FRONT RANGE...

CITY           SKY/WX    TMP DP  RH WIND       PRES   REMARKS
DENVER INTL AP MOCLDY    61  53  75 NE13      30.16R
DMNS CITY PARK   N/A     61  53  75 NE14G22   30.14R
AURORA         PTCLDY    55  55  99 E7        30.15R
FRONT RANGE AP CLOUDY    61  55  82 NE6       30.16R
ERIE MUNI ARPT CLOUDY    64  54  69 NE9       30.16R
BOULDER MUN AP LGT RAIN  63  57  82 N7        30.17R
CENTENNIAL     FAIR      58  55  90 W7        30.15R
BROOMFIELD     MOCLDY    63  54  72 N10       30.18R
FORT COLLINS   LGT RAIN  60  54  80 NE17      30.19R
LONGMONT       CLOUDY    66  55  69 NE7       30.18R
$$

COZ041-046-047-076>085-087-088-231100-
...PIKES PEAK/PALMER DIVIDE AND SOUTHERN FOOTHILLS...

CITY           SKY/WX    TMP DP  RH WIND       PRES   REMARKS
COLO. SPRINGS  FAIR      57  54  89 N9        30.16R
A. F. ACADEMY  CLOUDY    57  50  76 N8        30.17R
SCHRIEVER AFB  NOT AVBL
CHEYENNE MTN   NOT AVBL
ELLICOTT       FAIR     N/A N/A N/A E10       30.12S
FALCON           N/A     56  54  92 NW8       30.20R
FORT CARSON    FAIR      58  52  81 NW8       30.11S
LIMON          CLOUDY    60  55  83 N5        30.13R
MONUMENT HILL  FAIR      52  50  93 W9        30.22R
CANON CITY     CLEAR     61  55  82 CALM      30.07S
WALSENBURG     FAIR      55  46  71 CALM      30.09R
TRINIDAD       FAIR      57  47  69 E3        30.07S
$$

COZ042>045-048>051-090-091-231100-
...NORTHEAST COLORADO...

CITY           SKY/WX    TMP DP  RH WIND       PRES   REMARKS
GREELEY ARPT   MOCLDY    59  57  93 NE12      30.17R
AKRON          LGT RAIN  56  50  80 NE7       30.15R
BURLINGTON     CLOUDY    61  48  62 NE15      30.07R
WRAY           RAIN      57  54  88 NE8       30.08S
YUMA           NOT AVBL
STERLING       LGT RAIN  55  54  94 N5        30.14R
HOLYOKE        NOT AVBL
FORT MORGAN    CLOUDY    55  51  86 NE14      30.16R
$$

COZ086-089-092>099-231100-
...SOUTHEAST COLORADO...

CITY           SKY/WX    TMP DP  RH WIND       PRES   REMARKS
PUEBLO         FAIR      63  56  78 CALM      30.04R
LA JUNTA       MOCLDY    63  57  81 N6        30.02R
LAMAR          FAIR      62  59  90 CALM      29.97R
SPRINGFIELD      N/A     59  58  96 N7        29.99R
$$



USA.gov is the U.S. government's official web portal to all federal, state and local government web resources and services.